Location: New Frontier Mobile Home Park
(32.8448°N, 116.9675°W)
Time: 23:11:33
(UTC+00:00)

Cosmos 468 Rocket - Pass Details

Date: 14 July 2020
Orbit: 743 x 780 km, 74.0° (Epoch: 05 August)

Event Time Altitude Azimuth Distance (km) Brightness Sun altitude
Rises 10:57:56 0° 344° (NNW) 3,264 7.6 -20.1°
Reaches altitude 10° 11:00:19 10° 345° (NNW) 2,335 6.9 -19.7°
Maximum altitude 11:05:39 84° 74° (ENE) 789 4.0 -18.9°
Drops below altitude 10° 11:10:57 10° 162° (SSE) 2,322 6.3 -18.1°
Sets 11:13:19 0° 163° (SSE) 3,243 7.0 -17.7°
Enters shadow 11:13:20 - 163° (SSE) 3,252 7.0 -17.7°
